[[{"header":{"parameterUnit":"m.s-1","parameterCategory":2,"la1":30.2992,"la2":30.254,"lo1":-89.0895,"lo2":-89.0443,"dy":0.0025,"dx":0.0025,"nx":19,"ny":19,"refTime":"2026-03-14T09:00:00:Z","depth":"0","parameterNumber":2,"parameterNumberName":"U-component_of_CURRENTS"},"data":[0,0,0,-0.1101,-0.1102,-0.1128,-0.1128,-0.1121,-0.1121,0,0,0,0,0,0,0,0,0,0,0,-0.1088,-0.1088,-0.1101,-0.1102,-0.1128,-0.1128,-0.1122,-0.1121,0,0,0,0,0,0,0,0,0,0,0,-0.1088,-0.1088,-0.1088,-0.1102,-0.1128,-0.1128,-0.1122,-0.1111,0,0,0,0,0,0,0,0,0,0,-0.109,-0.108,-0.1088,-0.1088,-0.1103,-0.1128,-0.1128,-0.111,-0.1111,-0.11,0,-0.1106,0,-0.1117,-0.1121,-0.1121,0,0,0,-0.1097,-0.108,-0.1093,-0.1088,-0.1103,-0.1128,-0.1115,-0.1111,-0.1112,-0.1101,-0.1106,-0.1107,-0.1117,-0.112,-0.112,-0.1163,-0.1163,0,0,-0.1095,-0.1085,-0.1093,-0.1094,-0.1111,-0.1114,-0.1116,-0.1112,-0.1109,-0.1106,-0.1107,-0.1117,-0.112,-0.112,-0.1162,-0.1163,0,0,0,-0.1095,-0.1084,-0.1098,-0.1094,-0.1104,-0.1115,-0.1117,-0.1109,-0.1116,-0.1107,-0.1117,-0.112,-0.112,-0.1162,-0.1163,-0.1219,0,0,0,-0.1094,-0.1084,-0.1097,-0.109,-0.1104,-0.1111,-0.1113,-0.1116,-0.1116,-0.1117,-0.112,-0.112,-0.1161,-0.1162,-0.1216,-0.1222,0,0,0,-0.1086,-0.1083,-0.1088,-0.109,-0.1105,-0.1112,-0.1118,-0.1116,-0.1122,-0.112,-0.112,-0.1161,-0.1162,-0.1214,-0.1218,-0.1213,0,0,0,-0.1071,-0.1089,-0.1088,-0.1114,-0.1105,-0.1152,-0.1118,-0.1139,-0.1142,-0.112,-0.1161,-0.1163,-0.1213,-0.1216,-0.1211,-0.1066,-0.1063,0,0,-0.1089,-0.109,-0.1109,-0.111,-0.116,-0.1148,-0.1202,-0.1183,-0.1158,-0.1157,-0.1158,-0.1217,-0.1218,-0.1212,-0.1144,-0.1137,0,0,0,-0.1113,-0.1123,-0.114,-0.1166,-0.1197,-0.1228,-0.1224,-0.1227,-0.1229,-0.1167,-0.1229,-0.1227,-0.1221,-0.1131,-0.1127,-0.1022,-0.1169,-0.1169,-0.1168,-0.1112,-0.114,-0.1174,-0.1213,-0.1247,-0.1283,-0.1305,-0.1305,-0.128,-0.1295,-0.1283,-0.1328,-0.1235,-0.1229,-0.1125,-0.1303,-0.1303,-0.1303,-0.1304,-0.1135,-0.115,-0.1195,-0.1232,-0.1278,-0.1318,-0.1372,-0.1367,-0.1378,-0.1356,-0.1348,-0.1207,-0.1227,-0.1118,-0.1307,-0.1307,-0.1306,-0.1306,-0.1306,-0.1125,-0.1133,-0.1163,-0.1216,-0.1268,-0.1323,-0.1363,-0.1399,-0.1405,-0.1414,-0.1273,-0.127,-0.116,-0.1398,-0.1398,-0.1398,-0.1398,-0.1398,-0.1398,-0.1086,-0.1122,-0.1131,-0.1194,-0.1211,-0.1265,-0.1346,-0.1357,-0.1331,-0.1307,-0.1305,-0.1155,-0.1356,-0.1337,-0.1399,-0.1399,-0.1399,-0.1398,-0.1398,-0.103,-0.1059,-0.1062,-0.1076,-0.1124,-0.1101,-0.1223,-0.1194,-0.1226,-0.1171,-0.1039,-0.124,-0.1194,-0.1195,-0.1172,-0.1188,-0.1188,-0.1188,-0.1188,-0.0971,-0.0997,-0.0964,-0.0962,-0.0986,-0.1015,-0.0897,-0.0874,-0.0863,-0.0816,-0.0898,-0.0842,-0.0855,-0.0788,-0.0798,-0.0767,-0.0679,-0.0679,-0.0678,-0.09,-0.0911,-0.0845,-0.0873,-0.0893,-0.0868,-0.0648,-0.0432,-0.049,-0.0654,-0.0787,-0.0808,-0.0727,-0.0756,-0.0652,-0.0675,-0.0623,0,0]},{"header":{"parameterUnit":"m.s-1","parameterCategory":2,"la1":30.2992,"la2":30.254,"lo1":-89.0895,"lo2":-89.0443,"dy":0.0025,"dx":0.0025,"nx":19,"ny":19,"refTime":"2026-03-14T09:00:00:Z","depth":"0","parameterNumber":3,"parameterNumberName":"V-component_of_CURRENTS"},"data":[0,0,0,0.0054,0.0054,0.009,0.0091,0.0151,0.0152,0,0,0,0,0,0,0,0,0,0,0,0.0042,0.0042,0.0054,0.0054,0.009,0.0091,0.0151,0.0152,0,0,0,0,0,0,0,0,0,0,0,0.0042,0.0042,0.0042,0.0055,0.009,0.0091,0.0151,0.0123,0,0,0,0,0,0,0,0,0,0,0.0087,0.0073,0.0042,0.0042,0.0055,0.009,0.0091,0.0122,0.0125,0.0135,0,0.0133,0,0.0139,0.0155,0.0155,0,0,0,0.0066,0.0071,0.0075,0.0042,0.0055,0.009,0.0077,0.0123,0.0127,0.014,0.0134,0.0136,0.014,0.0155,0.0156,0.0199,0.0199,0,0,0.0064,0.0057,0.0072,0.0077,0.0055,0.0076,0.0078,0.0125,0.0129,0.0134,0.0138,0.0141,0.0156,0.0156,0.0199,0.0199,0,0,0,0.005,0.0056,0.0059,0.0074,0.0077,0.0077,0.008,0.0127,0.0126,0.0138,0.0142,0.0156,0.0157,0.0199,0.0199,0.0173,0,0,0,0.005,0.0047,0.0058,0.0056,0.0076,0.0101,0.008,0.0123,0.0128,0.0141,0.0156,0.0157,0.0199,0.0199,0.0174,0.0145,0,0,0,0.0042,0.0046,0.0046,0.0055,0.0064,0.01,0.0103,0.0124,0.013,0.0155,0.0157,0.0199,0.0199,0.0174,0.0147,0.0167,0,0,0,0.0041,0.0022,0.0046,0.0027,0.0064,0.0077,0.0103,0.012,0.0139,0.0156,0.0199,0.0199,0.0174,0.0147,0.0167,0.0259,0.0265,0,0,0.0011,0.0018,0.0006,0.0027,0.0014,0.0073,0.0087,0.0122,0.0148,0.0186,0.0187,0.0174,0.0147,0.0167,0.0273,0.0278,0,0,0,-0.0008,-0.0021,-0.0019,-0.002,0.0006,0.0043,0.0091,0.0122,0.0162,0.0159,0.0186,0.017,0.0183,0.024,0.0244,0.038,0.02,0.02,0.02,-0.0043,-0.0044,-0.0071,-0.0063,-0.0042,0.0027,0.0064,0.0119,0.015,0.0168,0.0159,0.0166,0.0227,0.0231,0.0369,0.018,0.0179,0.0179,0.0179,-0.0101,-0.012,-0.0115,-0.0142,-0.0092,-0.0063,0.0033,0.0076,0.0139,0.0155,0.0171,0.0222,0.0234,0.038,0.0178,0.0178,0.0178,0.0178,0.0179,-0.0122,-0.0136,-0.0156,-0.019,-0.0183,-0.0121,-0.007,0.0009,0.0095,0.0115,0.0209,0.021,0.0332,0.0136,0.0136,0.0136,0.0136,0.0136,0.0136,-0.0132,-0.0157,-0.0199,-0.0239,-0.0263,-0.0247,-0.0128,-0.005,0.0099,0.0181,0.0183,0.0363,0.0153,0.0147,0.0135,0.0135,0.0135,0.0135,0.0135,-0.017,-0.0164,-0.0238,-0.0278,-0.0341,-0.0306,-0.0203,0.0042,0.0128,0.023,0.0453,0.0238,0.0258,0.0256,0.0253,0.027,0.027,0.027,0.027,-0.0176,-0.0185,-0.0264,-0.0333,-0.0389,-0.0332,-0.0083,0.0199,0.0477,0.0609,0.0584,0.0635,0.0624,0.0667,0.0656,0.0662,0.0782,0.0783,0.0783,-0.0201,-0.0221,-0.0273,-0.0335,-0.0412,-0.0317,0.0006,0.0473,0.0793,0.0814,0.0754,0.0732,0.0814,0.0785,0.0857,0.0831,0.0841,0,0]}],[{"header":{"parameterUnit":"m.s-1","parameterCategory":2,"la1":30.2992,"la2":30.254,"lo1":-89.0895,"lo2":-89.0443,"dy":0.0025,"dx":0.0025,"nx":19,"ny":19,"refTime":"2026-03-14T09:00:00:Z","depth":"2","parameterNumber":2,"parameterNumberName":"U-component_of_CURRENTS"},"data":[0,0,0,-0.1076,-0.1077,-0.11,-0.11,-0.1091,-0.1091,0,0,0,0,0,0,0,0,0,0,0,-0.1065,-0.1065,-0.1076,-0.1077,-0.11,-0.11,-0.1091,-0.1091,0,0,0,0,0,0,0,0,0,0,0,-0.1065,-0.1065,-0.1065,-0.1077,-0.11,-0.11,-0.1091,-0.1082,0,0,0,0,0,0,0,0,0,0,-0.1063,-0.1055,-0.1065,-0.1065,-0.1077,-0.11,-0.11,-0.1082,-0.1082,-0.1071,0,-0.1078,0,-0.1087,-0.109,-0.1089,0,0,0,-0.1071,-0.1054,-0.1068,-0.1065,-0.1078,-0.11,-0.1088,-0.1082,-0.1083,-0.1071,-0.1078,-0.1078,-0.1087,-0.1089,-0.1089,-0.1126,-0.1126,0,0,-0.107,-0.106,-0.1068,-0.1069,-0.1087,-0.1088,-0.1089,-0.1083,-0.108,-0.1078,-0.1078,-0.1087,-0.1089,-0.1089,-0.1125,-0.1126,0,0,0,-0.107,-0.1059,-0.1074,-0.1068,-0.1078,-0.1088,-0.109,-0.108,-0.1087,-0.1078,-0.1087,-0.1089,-0.1089,-0.1124,-0.1125,-0.1182,0,0,0,-0.1069,-0.106,-0.1073,-0.1066,-0.1078,-0.1083,-0.1087,-0.1087,-0.1087,-0.1087,-0.1089,-0.1089,-0.1124,-0.1125,-0.1179,-0.1187,0,0,0,-0.1063,-0.1059,-0.1065,-0.1066,-0.108,-0.1084,-0.109,-0.1087,-0.1093,-0.1089,-0.1089,-0.1124,-0.1125,-0.1177,-0.1183,-0.1178,0,0,0,-0.1048,-0.1066,-0.1065,-0.109,-0.108,-0.1124,-0.1091,-0.1109,-0.1111,-0.1089,-0.1124,-0.1125,-0.1176,-0.1181,-0.1176,-0.104,-0.1037,0,0,-0.1065,-0.1067,-0.1086,-0.1086,-0.1134,-0.112,-0.1169,-0.1149,-0.1125,-0.112,-0.1122,-0.118,-0.1183,-0.1177,-0.1111,-0.1105,0,0,0,-0.1089,-0.1099,-0.1115,-0.114,-0.1168,-0.1195,-0.1189,-0.119,-0.1191,-0.1133,-0.1189,-0.1189,-0.1183,-0.1098,-0.1095,-0.1131,-0.1131,-0.1131,-0.1131,-0.109,-0.1116,-0.1149,-0.1185,-0.1216,-0.1247,-0.1265,-0.1263,-0.1239,-0.1253,-0.1242,-0.1285,-0.1198,-0.1193,-0.1259,-0.126,-0.126,-0.126,-0.126,-0.1113,-0.113,-0.1169,-0.1206,-0.1248,-0.1284,-0.1329,-0.1324,-0.1333,-0.1312,-0.1304,-0.1172,-0.1192,-0.1265,-0.1264,-0.1263,-0.1263,-0.1262,-0.1262,-0.1106,-0.1116,-0.1142,-0.1191,-0.1243,-0.1293,-0.1329,-0.1361,-0.1362,-0.1371,-0.1237,-0.1234,-0.1292,-0.1356,-0.1356,-0.1356,-0.1356,-0.1356,-0.1356,-0.1077,-0.1108,-0.1119,-0.1176,-0.1192,-0.1245,-0.132,-0.1329,-0.13,-0.1273,-0.1271,-0.1317,-0.1313,-0.1297,-0.1357,-0.1357,-0.1356,-0.1356,-0.1356,-0.1033,-0.1059,-0.1063,-0.1074,-0.1119,-0.1093,-0.1212,-0.1184,-0.1209,-0.1156,-0.1206,-0.1209,-0.1166,-0.1166,-0.1145,-0.1163,-0.1163,-0.1162,-0.1162,-0.0986,-0.101,-0.0982,-0.0977,-0.0995,-0.1016,-0.0916,-0.0916,-0.0974,-0.0984,-0.0992,-0.095,-0.096,-0.0903,-0.091,-0.0883,-0.0832,-0.0832,-0.0832,-0.0925,-0.0937,-0.0877,-0.0901,-0.0911,-0.0881,-0.069,-0.0552,-0.0638,-0.0823,-0.0979,-0.1132,-0.1089,-0.1099,-0.1025,-0.1031,-0.0993,0,0]},{"header":{"parameterUnit":"m.s-1","parameterCategory":2,"la1":30.2992,"la2":30.254,"lo1":-89.0895,"lo2":-89.0443,"dy":0.0025,"dx":0.0025,"nx":19,"ny":19,"refTime":"2026-03-14T09:00:00:Z","depth":"2","parameterNumber":3,"parameterNumberName":"V-component_of_CURRENTS"},"data":[0,0,0,-0.0076,-0.0075,-0.0035,-0.0035,0.0019,0.0019,0,0,0,0,0,0,0,0,0,0,0,-0.0089,-0.0089,-0.0076,-0.0075,-0.0035,-0.0035,0.0019,0.0019,0,0,0,0,0,0,0,0,0,0,0,-0.0089,-0.0089,-0.0089,-0.0075,-0.0035,-0.0035,0.0019,-0.001,0,0,0,0,0,0,0,0,0,0,-0.0048,-0.0063,-0.0089,-0.0089,-0.0075,-0.0035,-0.0035,-0.0011,-0.0008,-0.0002,0,-0.0001,0,0.0005,0.0022,0.0022,0,0,0,-0.0065,-0.0065,-0.0058,-0.0089,-0.0074,-0.0035,-0.005,-0.0009,-0.0006,0.0002,-0.0001,0.0001,0.0006,0.0022,0.0023,0.006,0.006,0,0,-0.0067,-0.0076,-0.006,-0.0056,-0.0072,-0.0052,-0.0049,-0.0007,-0.0005,-0.0,0.0003,0.0007,0.0023,0.0023,0.0059,0.006,0,0,0,-0.008,-0.0078,-0.0071,-0.0058,-0.0054,-0.0051,-0.0048,-0.0006,-0.0005,0.0003,0.0008,0.0023,0.0023,0.0059,0.006,0.0038,0,0,0,-0.0081,-0.0086,-0.0072,-0.0076,-0.0055,-0.003,-0.0048,-0.0008,-0.0003,0.0008,0.0023,0.0024,0.0059,0.0059,0.0038,0.0012,0,0,0,-0.0089,-0.0086,-0.0085,-0.0077,-0.0064,-0.0031,-0.0026,-0.0007,-0.0001,0.0022,0.0024,0.0059,0.0059,0.0038,0.0013,0.0035,0,0,0,-0.0094,-0.0112,-0.0085,-0.0101,-0.0065,-0.005,-0.0026,-0.0008,0.0009,0.0023,0.0059,0.006,0.0038,0.0014,0.0035,0.0106,0.0111,0,0,-0.0124,-0.0115,-0.0125,-0.0101,-0.0111,-0.0054,-0.0041,-0.0008,0.0017,0.0047,0.0048,0.0038,0.0013,0.0035,0.012,0.0124,0,0,0,-0.014,-0.0151,-0.0147,-0.0144,-0.0117,-0.0082,-0.0037,-0.0008,0.0029,0.0026,0.0049,0.0034,0.0049,0.0093,0.0096,0.0061,0.0061,0.0061,0.0061,-0.0184,-0.0178,-0.02,-0.0185,-0.0164,-0.0097,-0.0062,-0.0012,0.0017,0.0034,0.0025,0.0035,0.0082,0.0085,0.0044,0.0044,0.0044,0.0044,0.0044,-0.0244,-0.0258,-0.0245,-0.0266,-0.0214,-0.0187,-0.0094,-0.0053,0.0008,0.0022,0.0038,0.0077,0.0088,0.0043,0.0043,0.0043,0.0043,0.0043,0.0043,-0.0276,-0.0284,-0.0299,-0.0323,-0.0308,-0.0244,-0.0195,-0.0116,-0.0032,-0.001,0.0069,0.007,0.002,0.0011,0.0011,0.0011,0.0011,0.0011,0.0011,-0.0298,-0.0315,-0.0353,-0.0378,-0.0397,-0.0372,-0.025,-0.0176,-0.0034,0.0044,0.0045,0.0024,0.0025,0.0019,0.0011,0.0011,0.0011,0.0011,0.0011,-0.0341,-0.0338,-0.0405,-0.044,-0.0483,-0.0463,-0.0347,-0.0119,-0.0024,0.0068,0.0094,0.0092,0.0109,0.0108,0.0105,0.0119,0.0119,0.0119,0.0119,-0.0357,-0.0365,-0.0438,-0.0502,-0.0554,-0.0501,-0.0315,-0.0088,0.0094,0.0144,0.0142,0.0158,0.0155,0.0174,0.0171,0.0169,0.02,0.02,0.02,-0.0388,-0.0403,-0.0457,-0.0511,-0.0588,-0.0515,-0.0301,0.0013,0.0197,0.0197,0.0097,0.0136,0.0158,0.0152,0.0181,0.0177,0.0174,0,0]}],[{"header":{"parameterUnit":"m.s-1","parameterCategory":2,"la1":30.2992,"la2":30.254,"lo1":-89.0895,"lo2":-89.0443,"dy":0.0025,"dx":0.0025,"nx":19,"ny":19,"refTime":"2026-03-14T09:00:00:Z","depth":"4","parameterNumber":2,"parameterNumberName":"U-component_of_CURRENTS"},"data":[0,0,0,-0.0857,-0.0858,-0.0909,-0.0909,-0.0913,-0.0913,0,0,0,0,0,0,0,0,0,0,0,-0.0842,-0.0843,-0.0857,-0.0858,-0.0909,-0.0909,-0.0913,-0.0913,0,0,0,0,0,0,0,0,0,0,0,-0.0842,-0.0843,-0.0843,-0.0858,-0.0909,-0.0909,-0.0913,-0.0888,0,0,0,0,0,0,0,0,0,0,-0.0846,-0.0841,-0.0842,-0.0843,-0.0859,-0.0909,-0.0909,-0.0888,-0.089,-0.0873,0,-0.0891,0,-0.0901,-0.0912,-0.0912,0,0,0,-0.0853,-0.0839,-0.0856,-0.0843,-0.0859,-0.0909,-0.0885,-0.089,-0.0892,-0.0876,-0.0891,-0.0891,-0.0901,-0.0912,-0.0912,-0.0936,-0.0937,0,0,-0.0851,-0.0845,-0.0855,-0.0858,-0.0883,-0.0883,-0.0886,-0.0892,-0.0895,-0.0891,-0.0892,-0.0901,-0.0912,-0.0912,-0.0936,-0.0937,0,0,0,-0.0846,-0.0843,-0.0861,-0.0857,-0.0871,-0.0885,-0.0889,-0.0895,-0.0902,-0.0892,-0.0902,-0.0912,-0.0911,-0.0936,-0.0936,-0.0986,0,0,0,-0.0844,-0.084,-0.086,-0.0855,-0.0872,-0.0891,-0.0891,-0.0902,-0.0903,-0.0901,-0.0912,-0.0911,-0.0935,-0.0936,-0.0984,-0.1005,0,0,0,-0.0838,-0.0839,-0.085,-0.0855,-0.088,-0.0892,-0.09,-0.0903,-0.0908,-0.0912,-0.0911,-0.0935,-0.0936,-0.0982,-0.1002,-0.1006,0,0,0,-0.0823,-0.0845,-0.085,-0.0882,-0.0879,-0.0923,-0.09,-0.0927,-0.0935,-0.0912,-0.0935,-0.0936,-0.0981,-0.1,-0.1005,-0.0855,0,0,0,-0.0841,-0.0847,-0.0868,-0.0873,-0.0922,-0.0915,-0.0958,-0.0956,-0.0939,-0.0927,-0.0928,-0.0984,-0.1002,-0.1006,-0.0906,0,0,0,0,-0.0868,-0.0883,-0.09,-0.0931,-0.0958,-0.0986,-0.0986,-0.0984,-0.099,-0.0949,-0.0988,-0.0997,-0.0998,-0.0906,-0.094,-0.094,-0.094,-0.094,-0.094,-0.0849,-0.0887,-0.0928,-0.0974,-0.1005,-0.1033,-0.1049,-0.1044,-0.1023,-0.1036,-0.104,-0.1081,-0.0987,-0.1042,-0.1042,-0.1042,-0.1043,-0.1043,-0.1043,-0.0861,-0.0875,-0.0945,-0.1001,-0.1044,-0.108,-0.1105,-0.1101,-0.111,-0.1089,-0.1087,-0.0968,-0.1048,-0.1047,-0.1046,-0.1046,-0.1045,-0.1045,-0.1045,-0.0808,-0.0826,-0.0887,-0.0974,-0.1049,-0.1105,-0.1135,-0.1158,-0.1152,-0.1163,-0.1042,-0.1108,-0.11,-0.1158,-0.1158,-0.1159,-0.1159,-0.1159,-0.1159,-0.0714,-0.0782,-0.0826,-0.0942,-0.1,-0.1077,-0.1153,-0.1153,-0.1168,-0.1082,-0.1175,-0.112,-0.1116,-0.1106,-0.1161,-0.1161,-0.116,-0.116,-0.116,-0.0639,-0.0667,-0.0726,-0.0789,-0.0929,-0.0981,-0.1096,-0.1077,-0.1065,-0.1012,-0.1024,-0.103,-0.0993,-0.0992,-0.0976,-0.0995,-0.0993,-0.0991,0,-0.0563,-0.0589,-0.0639,-0.0703,-0.0778,-0.0907,-0.0885,-0.0921,-0.0924,-0.0887,-0.1039,-0.1052,-0.1056,-0.1013,-0.101,-0.099,0,0,0,-0.0517,-0.0538,-0.0543,-0.0621,-0.0702,-0.0767,-0.087,-0.083,-0.0949,-0.0892,-0.0948,-0.0959,-0.1089,-0.1167,-0.1124,-0.1119,-0.1101,0,0]},{"header":{"parameterUnit":"m.s-1","parameterCategory":2,"la1":30.2992,"la2":30.254,"lo1":-89.0895,"lo2":-89.0443,"dy":0.0025,"dx":0.0025,"nx":19,"ny":19,"refTime":"2026-03-14T09:00:00:Z","depth":"4","parameterNumber":3,"parameterNumberName":"V-component_of_CURRENTS"},"data":[0,0,0,-0.0151,-0.015,-0.012,-0.012,-0.0087,-0.0087,0,0,0,0,0,0,0,0,0,0,0,-0.0162,-0.0162,-0.0151,-0.015,-0.012,-0.012,-0.0087,-0.0087,0,0,0,0,0,0,0,0,0,0,0,-0.0162,-0.0162,-0.0162,-0.015,-0.0121,-0.012,-0.0087,-0.0107,0,0,0,0,0,0,0,0,0,0,-0.0134,-0.015,-0.0162,-0.0162,-0.015,-0.0121,-0.012,-0.0107,-0.0105,-0.0104,0,-0.0104,0,-0.0098,-0.0085,-0.0085,0,0,0,-0.0143,-0.0151,-0.0141,-0.0162,-0.015,-0.0121,-0.0132,-0.0106,-0.0104,-0.0101,-0.0104,-0.0103,-0.0097,-0.0085,-0.0085,-0.006,-0.006,0,0,-0.0145,-0.0156,-0.0143,-0.014,-0.0149,-0.0133,-0.0131,-0.0105,-0.0107,-0.0104,-0.0102,-0.0097,-0.0085,-0.0085,-0.0061,-0.006,0,0,0,-0.0154,-0.0158,-0.0148,-0.0142,-0.0137,-0.0132,-0.013,-0.0108,-0.0104,-0.0101,-0.0096,-0.0085,-0.0085,-0.0061,-0.0061,-0.0079,0,0,0,-0.0155,-0.0164,-0.0149,-0.0155,-0.0138,-0.0123,-0.0134,-0.0106,-0.0103,-0.0097,-0.0085,-0.0084,-0.0061,-0.0061,-0.0079,-0.0094,0,0,0,-0.0162,-0.0164,-0.0162,-0.0156,-0.0146,-0.0123,-0.0117,-0.0105,-0.01,-0.0085,-0.0084,-0.0061,-0.0061,-0.0079,-0.0093,-0.0068,0,0,0,-0.0172,-0.0184,-0.0163,-0.0171,-0.0147,-0.0128,-0.0117,-0.0102,-0.009,-0.0085,-0.0061,-0.0061,-0.0078,-0.0093,-0.0068,-0.0107,0,0,0,-0.0194,-0.0187,-0.019,-0.017,-0.0171,-0.0131,-0.012,-0.01,-0.0085,-0.0069,-0.0068,-0.0079,-0.0093,-0.0068,-0.0092,0,0,0,0,-0.0201,-0.0208,-0.0202,-0.0197,-0.0171,-0.0147,-0.0117,-0.0099,-0.0078,-0.0078,-0.0068,-0.0077,-0.006,-0.0083,-0.0059,-0.0059,-0.0059,-0.0059,-0.0059,-0.0264,-0.0242,-0.0251,-0.0224,-0.0206,-0.0156,-0.013,-0.0099,-0.0084,-0.0074,-0.0084,-0.0069,-0.0094,-0.0071,-0.0071,-0.0071,-0.0071,-0.0071,-0.0071,-0.0314,-0.0325,-0.0291,-0.0294,-0.0252,-0.0233,-0.016,-0.0132,-0.0087,-0.0086,-0.0068,-0.0092,-0.0072,-0.0072,-0.0072,-0.0072,-0.0072,-0.0072,-0.0071,-0.0372,-0.0373,-0.0369,-0.0368,-0.0347,-0.0286,-0.0249,-0.0183,-0.0117,-0.0096,-0.0095,-0.0071,-0.0077,-0.0079,-0.0078,-0.0078,-0.0078,-0.0078,-0.0078,-0.0438,-0.0431,-0.0463,-0.0445,-0.0441,-0.0407,-0.0299,-0.0238,-0.0149,-0.012,-0.0097,-0.0071,-0.007,-0.0076,-0.0078,-0.0078,-0.0078,-0.0078,-0.0078,-0.05,-0.0512,-0.0554,-0.0566,-0.0547,-0.051,-0.0405,-0.0254,-0.0188,-0.0128,-0.0117,-0.0116,-0.0107,-0.0106,-0.0113,-0.0125,-0.0126,-0.0126,0,-0.055,-0.0558,-0.0626,-0.0654,-0.0646,-0.0568,-0.0466,-0.0356,-0.0232,-0.0253,-0.0209,-0.0206,-0.0202,-0.0202,-0.0201,-0.0214,0,0,0,-0.0585,-0.0604,-0.0658,-0.0693,-0.0683,-0.0546,-0.0437,-0.0387,-0.0262,-0.0167,-0.0139,-0.0136,-0.0113,-0.0076,-0.0058,-0.0058,-0.0066,0,0]}]]